Regional Weather Roundup
Issued by NWS Sioux Falls, SD

Home | Current Version | Previous Version | Text Only | Print | Product List | Glossary On
Versions: 1 2 3 4 5 6 7 8 9 10 11 12 13 14 15 16 17 18 19 20 21 22 23 24 25 26 27 28 29 30 31 32 33 34 35 36 37 38 39 40 41 42 43 44 45 46 47 48 49 50
000
ASUS43 KFSD 262210
RWRFSD

WEATHER ROUNDUP FOR SE SOUTH DAKOTA/SW MINNESOTA/NW IOWA
NATIONAL WEATHER SERVICE SIOUX FALLS SD
500 PM CDT FRI MAY 26 2017

NOTE: "FAIR" INDICATES FEW OR NO CLOUDS BELOW 12,000 FEET WITH NO
SIGNIFICANT WEATHER AND OR OBSTRUCTIONS TO VISIBILITY.


SDZ038>040-050-052>070-262300-
SOUTHEAST SOUTH DAKOTA

CITY           SKY/WX    TMP DP  RH WIND       PRES   REMARKS
BROOKINGS      SUNNY     70  44  39 W16G24    29.81S
CHAMBERLAIN    SUNNY     74  40  30 NW9G21    29.83F
HURON          SUNNY     75  42  30 NW13G28   29.80S
MADISON        FAIR      68  43  40 W9G22     29.83R
MITCHELL       SUNNY     76  38  25 NW12G26   29.82F
SIOUX FALLS    MOSUNNY   73  47  39 NW9       29.82S
WINNER         FAIR      73  40  30 W12       29.85F
YANKTON        SUNNY     73  44  35 NW10      29.84S
$$

MNZ071-072-080-081-089-090-097-098-262300-
SOUTHWEST MINNESOTA

CITY           SKY/WX    TMP DP  RH WIND       PRES   REMARKS
FAIRMONT       MOSUNNY   79  48  33 W14G20    29.76S
JACKSON        SUNNY     75  43  31 W16       29.79S
LUVERNE        SUNNY     72  37  28 NW12G24   29.81S
MARSHALL       MOSUNNY   73  45  36 W15G23    29.79S
MONTEVIDEO     SUNNY     75  43  31 N14       29.76S
PIPESTONE      SUNNY     72  34  25 NW13G18   29.82R
REDWOOD FALLS  SUNNY     75  45  34 W16       29.76R
TRACY          SUNNY     73  48  40 NW12G17   29.80S
WINDOM         SUNNY     75  41  29 W16G23    29.79R
WORTHINGTON    SUNNY     73  45  36 W16       29.81R
$$

IAZ001>003-012>014-020>022-031-032-NEZ013-014-SDZ071-262300-
NORTHWEST IOWA

CITY           SKY/WX    TMP DP  RH WIND       PRES   REMARKS
CHEROKEE       CLOUDY    77  45  32 W10G17    29.80S
DENISON        PTSUNNY   77  48  36 NW10      29.81S
ESTHERVILLE    SUNNY     77  47  34 NW18      29.77S
LE MARS        SUNNY     77  45  31 W14       29.82S
ORANGE CITY    SUNNY     73  48  40 NW14G22   29.82R
SHELDON        SUNNY     77  41  27 NW14G21   29.79S
SIOUX CITY     SUNNY     78  49  35 NW13      29.80S
SPENCER        CLOUDY    79  46  31 W16       29.79R
STORM LAKE     MOSUNNY   79  45  29 W12G17    29.79F
$$

ABBREVIATIONS USED IN REMARKS
   TC - TEMPERATURE IN CELSIUS
  WCI - WIND CHILL INDEX
   HX - HEAT INDEX
  VSB - VISIBILITY





USA.gov is the U.S. government's official web portal to all federal, state and local government web resources and services.